Погода в Акнисте

Латвия     56°09′33″N   25°44′58″E
темп.,
°C
ветер,
м/с
пор.,
м/с
влажн.,
%
обл.,
%
осадки,
мм/ч
давл.,
гПа
погр.,
м
5 марта, пт
пт523:00−2сз38680 0.0 1011424
02:00−2зсз48790 0.0 1012812
05:00−3зсз497085 0.1 10121016
08:00−3сз586592 0.2 10131085
11:00−1ссз48367 0.0 10151645
14:000сз47324 0.0 10162176
17:00−1з254884 0.0 1016766
20:00−3зюз128892 0.3 1018135
6 марта, сб
сб623:00−3ссв4790100 0.8 1020583
02:00−4с376887 0.9 1021425
05:00−5сз26690 0.0 1022334
08:00−5з37700 0.0 1023432
11:00−1з46550 0.0 10231110
14:00+1зюз510471 0.0 10201418
17:00+1зюз61360100 0.0 10171502
20:000зюз71661100 0.0 10141306
7 марта, вс
вс723:00−1зюз81669100 0.0 10091265
02:000з81597100 1.4 10051126
05:00−2сз71482100 2.6 10041429
08:00−3сз3115982 2.6 10071638
11:00−1з6114961 0.1 10062161
14:00−1з7125380 0.4 10041896
17:00−2з71568100 0.6 10021750
20:00−4зсз71565100 1.1 10031712
8 марта, пн
пн823:00−5сз61279100 0.1 10061300
02:00−5сз497495 0.1 1008976
05:00−6ссз268294 0.1 1009662
08:00−6ссз258048 0.1 1011505
11:00−4сз356776 0.1 1012982
14:00−4ссз465688 0.1 10141245
17:00−5с4765100 0.1 10161191
20:00−7с486996 0.1 1019938
9 марта, вт
вт923:00−9с38720 0.0 1022707
02:00−10ссз25770 0.0 1023242
05:00−10сз24810 0.0 1025140
08:00−9сз13743 0.0 1026152
11:00−4сз23500 0.0 1027642
14:00−2з23440 0.0 1027983
17:00−3з35560 0.0 1026754
20:00−5зюз38670 0.0 1027238